DW4362 Weather Reports


time (UTC)temp
F
wind
direction
speed
knots
gust
knots
rain 1hr
in
rain 24hr
in
rain mn
in
humidity
%
barometer
mb
20260904033159 80 172 0.0 0.0 0.00 0.01 0.01 92 1013.4
20260904030159 80 172 0.0 0.0 0.00 0.01 0.01 92 1013.3
20260904023159 80 172 0.0 0.0 0.00 0.01 0.01 93 1013.3
20260904020159 80 172 0.0 0.0 0.00 0.01 0.01 92 1013.3
20260904013159 80 172 0.0 0.0 0.00 0.01 0.01 91 1013.0
20260904003159 81 172 0.0 0.0 0.00 0.01 0.01 89 1012.7
20260904000159 83 172 0.0 0.0 0.00 0.01 0.01 88 1012.3
20260903233158 84 172 0.0 0.0 0.00 0.01 0.01 85 1012.2
20260903230159 85 197 0.0 0.0 0.00 0.01 0.01 85 1012.1
20260903223158 85 151 0.0 0.0 0.00 0.01 0.01 82 1012.2
20260903220158 86 160 0.0 0.0 0.00 0.01 0.01 77 1012.1
20260903213158 86 160 0.0 0.0 0.00 0.01 0.01 76 1012.2
20260903203158 91 99 0.0 1.7 0.00 0.01 0.01 64 1012.8
20260903200228 92 171 0.0 1.7 0.00 0.04 0.01 61 1013.1
20260903193158 93 13 1.7 4.3 0.00 0.25 0.01 60 1013.4
20260903183158 89 82 1.7 1.7 0.00 0.25 0.01 73 1014.0
20260903180228 89 234 0.0 0.0 0.00 0.25 0.01 70 1014.3
20260903173158 89 84 1.7 1.7 0.00 0.25 0.01 70 1014.6
20260903163157 89 259 0.0 1.7 0.00 0.25 0.01 73 1015.1
20260903153157 87 15 2.6 4.3 0.00 0.25 0.01 78 1015.1
20260903150227 84 349 0.0 1.7 0.00 0.25 0.01 83 1015.0
20260903143157 83 30 0.0 0.0 0.00 0.25 0.01 86 1014.9
20260903140227 81 1 0.0 0.0 0.00 0.25 0.01 89 1014.9
20260903133227 81 14 0.0 0.0 0.00 0.25 0.01 89 1015.0
20260903130227 78 316 2.6 2.6 0.00 0.25 0.01 96 1014.9
20260903123226 76 314 0.0 0.0 0.00 0.25 0.01 95 1014.7
20260903120226 76 321 0.0 0.0 0.00 0.25 0.01 95 1014.6
20260903113226 75 140 0.0 0.0 0.00 0.25 0.01 95 1014.2
20260903110225 75 141 0.0 0.0 0.00 0.25 0.01 95 1014.0
20260903103226 75 140 0.0 0.0 0.00 0.25 0.01 95 1014.2
20260903100225 75 140 0.0 0.0 0.00 0.25 0.01 94 1013.8
20260903093225 75 140 0.0 0.0 0.01 0.25 0.01 94 1014.0
20260903090225 75 140 0.0 0.0 0.01 0.25 0.01 94 1013.9
20260903083225 75 140 0.0 0.0 0.00 0.24 0.00 94 1014.1
20260903073225 76 140 0.0 0.0 0.00 0.24 0.00 94 1014.0
20260903070225 76 140 0.0 0.0 0.00 0.24 0.00 94 1014.4
20260903063225 76 140 0.0 0.0 0.00 0.24 0.00 94 1014.6
20260903060225 76 140 0.0 0.0 0.00 0.24 0.00 95 1014.8
20260903053224 77 140 0.0 0.0 0.00 0.24 0.00 94 1015.2
20260903050225 77 140 0.0 0.0 0.00 0.24 0.00 95 1014.9
20260903043224 77 140 0.0 0.0 0.00 0.24 0.24 95 1014.9
20260903040224 77 139 0.0 0.0 0.00 0.24 0.24 95 1014.7